Flag for Germany Weather past 2 weeks in Hanau, Hesse, Germany

41 °F

Passing clouds.

Feels Like: 34 °F
Forecast: 46 / 51 °F
Wind: 13 mph from South

Location: Frankfurt-M-Flughafen Airport

Current Time: Nov 29, 2015 at 2:47:16 AM

Latest Report: Nov 29, 2015 at 2:20 AM

Visibility: N/A

Pressure: 29.98 "Hg

Humidity: 76%

Dew point: 34 °F

Location of HanauLocation

Historic Weather in Hanau — Graph


Hanau temperature yesterday

Maximum temperature yesterday: 45 °F (at 12:50 PM)
Minimum temperature yesterday: 32 °F (at 12:50 AM)
Average temperature yesterday: 38 °F

Past Weeks' High & Low Weather Summary

High61 °F (Nov 18, 12:50 AM)100% (Nov 17, 7:20 AM)30.36 "Hg (Nov 17, 7:20 AM)
Low27 °F (Nov 24, 2:20 AM)51% (Nov 18, 12:50 PM)29.39 "Hg (Nov 21, 2:20 PM)
Average44 °F84%29.95 "Hg
* Reported Nov 14 12:20 AM — Nov 29 12:50 AM, Hanau, Weather by CustomWeather, © 2015

Note: Actual official high and low records may vary slightly from our data, if they occured in-between our weather recording intervals... More about our weather records


Hanau weather history for previous 24 hours

Time TempWeatherWind HumidityBarometerVisibility
12:50 AM
Sun, Nov 29
39 °FPassing clouds.17 mph81%30.01 "HgN/A
12:20 AM41 °FPassing clouds.15 mph76%30.01 "HgN/A
11:50 PM
Sat, Nov 28
41 °FPassing clouds.14 mph76%30.04 "HgN/A
11:20 PM41 °FPassing clouds.14 mph76%30.04 "HgN/A
10:50 PM41 °FPassing clouds.10 mph70%30.07 "HgN/A
10:20 PM39 °FPartly cloudy.10 mph75%30.07 "HgN/A
9:50 PM39 °FPassing clouds.12 mph75%30.07 "HgN/A
9:20 PM37 °FPartly cloudy.12 mph81%30.09 "HgN/A
8:50 PM37 °FPartly cloudy.9 mph81%30.09 "HgN/A
8:20 PM39 °FClear.10 mph75%30.07 "Hg10 mi
7:50 PM37 °FClear.13 mph75%30.07 "Hg10 mi
7:20 PM37 °FClear.13 mph75%30.07 "Hg10 mi
6:50 PM39 °FClear.15 mph70%30.07 "Hg10 mi
6:20 PM39 °FClear.12 mph70%30.07 "Hg10 mi
5:50 PM39 °FClear.13 mph70%30.07 "Hg10 mi
5:20 PM41 °FPassing clouds.12 mph66%30.07 "HgN/A
4:50 PM39 °FPassing clouds.7 mph75%30.04 "HgN/A
4:20 PM43 °FScattered clouds.8 mph66%30.04 "HgN/A
3:50 PM43 °FPartly sunny.10 mph66%30.04 "HgN/A
3:20 PM43 °FScattered clouds.13 mph66%30.04 "HgN/A
2:50 PM45 °FScattered clouds.13 mph61%30.01 "HgN/A
2:20 PM45 °FScattered clouds.12 mph66%30.01 "HgN/A
1:50 PM45 °FPassing clouds.14 mph71%30.01 "HgN/A
1:20 PM43 °FScattered clouds.14 mph76%29.98 "HgN/A
12:50 PM45 °FScattered clouds.12 mph81%29.98 "HgN/A
12:20 PM43 °FLight rain. Partly sunny.10 mph87%29.95 "HgN/A
11:50 AM41 °FPartly sunny.10 mph93%29.95 "HgN/A
11:20 AM41 °FLight rain. Partly sunny.9 mph93%29.95 "HgN/A
10:50 AM39 °FLight rain. Partly sunny.9 mph93%29.92 "Hg6 mi
10:20 AM36 °FPartly sunny.9 mph100%29.89 "Hg4 mi
9:50 AM36 °FBroken clouds.8 mph93%29.89 "Hg4 mi
9:20 AM34 °FFog.10 mph100%29.86 "Hg3 mi
8:50 AM34 °FFog.12 mph93%29.86 "Hg2 mi
8:20 AM34 °FLight rain. Partly sunny.12 mph93%29.86 "Hg2 mi
7:20 AM34 °FLight snow. Passing clouds.10 mph93%29.83 "Hg2 mi
6:50 AM34 °FLight snow. Low clouds.9 mph93%29.83 "Hg2 mi
6:20 AM34 °FLight rain. Passing clouds.10 mph93%29.83 "Hg2 mi
5:50 AM34 °FPassing clouds.12 mph93%29.83 "Hg2 mi
5:20 AM34 °FLight rain. Passing clouds.10 mph93%29.83 "Hg2 mi
4:50 AM34 °FLight snow. Passing clouds.12 mph93%29.83 "Hg3 mi
4:20 AM34 °FLight rain. Passing clouds.10 mph93%29.83 "Hg3 mi
3:50 AM32 °FLight snow. Passing clouds.10 mph100%29.86 "Hg3 mi
3:20 AM32 °FLow clouds.9 mph100%29.86 "Hg4 mi
2:50 AM32 °FLow clouds.9 mph100%29.89 "Hg4 mi
2:20 AM32 °FLow clouds.8 mph100%29.89 "Hg4 mi
Weather by CustomWeather, © 2015

See weather overviewHow to use our weather pages